Flag for Pakistan Weather past 2 weeks in Lahore, Pakistan

97 °F


Feels Like: 98 °F
Forecast: 77 / 95 °F
Wind: 8 mph from Northwest

Location: Lahore Airport

Current Time: Oct 7, 2015 at 2:30:23 PM

Latest Report: Oct 7, 2015 at 2:00 PM

Visibility: 5 mi

Pressure: 29.83 "Hg

Humidity: 32%

Dew point: 63 °F

Location of LahoreLocation

Historic Weather in Lahore — Graph


Lahore temperature yesterday

Maximum temperature yesterday: 97 °F (at 2:25 PM)
Minimum temperature yesterday: 73 °F (at 5:55 AM)
Average temperature yesterday: 85 °F

Past Weeks' High & Low Weather Summary

High99 °F (Oct 1, 2:55 PM)100% (Sep 22, 1:25 PM)30.07 "Hg (Sep 22, 1:25 PM)
Low70 °F (Sep 22, 4:25 PM)29% (Oct 1, 2:55 PM)29.47 "Hg (Sep 22, 1:55 PM)
Average83 °F65%29.82 "Hg
* Reported Sep 22 1:25 PM — Oct 7 1:25 PM, Lahore, Weather by CustomWeather, © 2015

Note: Actual official high and low records may vary slightly from our data, if they occured in-between our weather recording intervals... More about our weather records


Lahore weather history for previous 24 hours

Time TempWeatherWind HumidityBarometerVisibility
1:25 PM
Wed, Oct 7
95 °FClear.7 mph36%29.86 "Hg5 mi
1:00 PM95 °FClear.8 mph36%29.86 "Hg5 mi
12:25 PM95 °FClear.7 mph39%29.86 "Hg4 mi
11:55 AM93 °FClear.6 mph39%29.89 "Hg4 mi
11:25 AM90 °FClear.6 mph43%29.89 "Hg4 mi
10:55 AM90 °FClear.6 mph46%29.89 "Hg4 mi
10:30 AM88 °FHaze.5 mph46%29.89 "Hg3 mi
10:00 AM86 °FClear.3 mph52%29.89 "Hg3 mi
9:00 AM84 °FClear.6 mph55%29.89 "Hg2 mi
8:25 AM82 °FClear.5 mph62%29.89 "Hg2 mi
7:55 AM81 °FClear.3 mph66%29.89 "Hg2 mi
7:25 AM81 °FSmoke.No wind70%29.86 "Hg3 mi
6:55 AM79 °FPassing clouds.No wind74%29.86 "Hg3 mi
4:55 AM79 °FClear.No wind74%29.83 "Hg2 mi
4:25 AM79 °FClear.3 mph79%29.83 "Hg2 mi
3:55 AM81 °FClear.5 mph74%29.83 "Hg2 mi
3:25 AM81 °FClear.3 mph74%29.83 "Hg2 mi
2:55 AM82 °FPassing clouds.No wind70%29.83 "Hg2 mi
1:55 AM82 °FPassing clouds.5 mph70%29.83 "Hg2 mi
12:55 AM82 °FPassing clouds.3 mph66%29.86 "Hg2 mi
12:25 AM82 °FPassing clouds.No wind66%29.86 "Hg2 mi
11:55 PM
Tue, Oct 6
84 °FPassing clouds.No wind66%29.86 "Hg2 mi
11:25 PM84 °FPassing clouds.No wind66%29.83 "Hg2 mi
10:55 PM84 °FPassing clouds.No wind66%29.83 "Hg2 mi
10:25 PM84 °FPassing clouds.No wind62%29.83 "Hg2 mi
9:55 PM86 °FPassing clouds.No wind59%29.83 "Hg2 mi
9:25 PM86 °FPassing clouds.No wind59%29.83 "Hg2 mi
8:55 PM86 °FPassing clouds.No wind59%29.83 "Hg2 mi
8:25 PM86 °FPassing clouds.3 mph59%29.83 "Hg2 mi
7:55 PM86 °FPassing clouds.3 mph59%29.83 "Hg2 mi
7:25 PM88 °FPassing clouds.3 mph55%29.80 "Hg2 mi
6:25 PM88 °FClear.3 mph52%29.80 "Hg2 mi
5:55 PM90 °FHaze.3 mph49%29.80 "Hg3 mi
5:25 PM91 °FClear.5 mph46%29.80 "Hg3 mi
4:55 PM93 °FHaze.5 mph44%29.80 "Hg3 mi
4:25 PM95 °FClear.5 mph41%29.80 "Hg3 mi
3:55 PM95 °FClear.5 mph41%29.80 "Hg3 mi
3:25 PM95 °FClear.3 mph41%29.80 "Hg4 mi
2:55 PM97 °FClear.3 mph39%29.83 "Hg4 mi
2:25 PM97 °FClear.3 mph37%29.83 "Hg4 mi
Weather by CustomWeather, © 2015

See weather overviewHow to use our weather pages